Weather in Somovo

Russia / Tula Oblast     53°51′39″N   36°31′21″E
temp.,
°C
wind,
m/s
gust,
m/s
humid.,
%
clouds,
%
prec.,
mm/h
press.,
hPa
HPBL,
m
15 may, sat
sat1500:00+14se36955 0.4 100996
03:00+13sse3394100 0.4 100839
06:00+14s35950 0.0 1008103
09:00+18ssw5983100 0.3 1009524
12:00+20ssw68669 0.3 10091348
15:00+19ssw796527 0.6 10091530
18:00+17ssw7127935 1.0 1010860
21:00+14s41293100 2.1 1010332
16 may, sun
sun1600:00+12s410961 0.0 1011201
03:00+11s49953 0.0 1012177
06:00+11s3894100 0.0 1013209
09:00+16ssw47803 0.1 1013581
12:00+19sw57631 0.1 10141356
15:00+20ssw56600 0.1 10141608
18:00+20sw356989 0.0 1013531
21:00+15s1180100 0.0 101411
17 may, mon
mon1700:00+14ese228288 0.0 101418
03:00+13e478920 0.0 101489
06:00+14e4118796 0.0 1013242
09:00+20e6107791 0.0 1012467
12:00+23ese711629 0.0 1010880
15:00+25ese712625 0.0 10091423
18:00+22ese71469100 0.0 1007594
21:00+19ese7167549 0.0 1007471
18 may, tue
tue1800:00+18se6157779 0.0 1006407
03:00+16se5128591 0.0 1006254
06:00+16se5129090 0.0 1006324
09:00+20sse71179100 0.0 1006743
12:00+21s81172100 0.1 10061337
15:00+19s61078100 0.2 1007860
18:00+18sse588484 0.9 1006714
21:00+15sse3591100 1.5 100687
19 may, wed
wed1900:00+14sse37935 0.1 1005132
03:00+12sse3595100 0.1 100588
06:00+13sse4995100 0.6 1004357
09:00+15s6889100 3.0 1004685
12:00+15ssw5790100 0.3 1005624
15:00+16wsw787677 2.6 10061138
18:00+15wsw57824 1.6 1008801
21:00+12wsw3789100 1.9 1010117